EW9066 Weather Reports


time (UTC)temp
F
wind
direction
speed
knots
gust
knots
rain 1hr
in
rain 24hr
in
rain mn
in
humidity
%
barometer
mb
20260504081537 49 72 0.9 5.2 0.00 0.00 0.00 43 1010.7
20260504050104 56 74 0.0 3.5 0.00 0.00 0.00 29 1004.0
20260504043052 57 193 1.7 5.2 0.00 0.00 0.00 28 1003.7
20260504041549 58 199 2.6 6.1 0.00 0.00 0.00 26 1003.6
20260504040051 58 360 0.9 5.2 0.00 0.00 0.00 26 1003.7
20260504033042 59 282 1.7 2.6 0.00 0.00 0.00 24 1003.4
20260504031544 60 299 0.9 3.5 0.00 0.00 0.00 23 1003.3
20260504030037 62 300 0.0 2.6 0.00 0.00 0.00 21 1003.0
20260504023033 67 304 0.9 3.5 0.00 0.00 0.00 17 1002.8
20260504021528 70 304 0.9 2.6 0.00 0.00 0.00 15 1002.8
20260504020025 72 304 0.9 3.5 0.00 0.00 0.00 14 1002.8
20260504013026 73 304 3.5 6.1 0.00 0.00 0.00 13 1002.8
20260504011518 73 326 3.5 8.7 0.00 0.00 0.00 11 1002.9
20260504010015 74 304 2.6 7.8 0.00 0.00 0.00 11 1003.0
20260504003015 75 310 3.5 7.8 0.00 0.00 0.00 12 1003.3
20260504001513 76 344 6.1 10.4 0.00 0.00 0.00 10 1003.3
20260504000031 77 319 6.1 10.4 0.00 0.00 0.00 9 1003.4
20260503233007 77 360 3.5 7.0 0.00 0.00 0.00 10 1003.5
20260503231502 78 360 5.2 9.6 0.00 0.00 0.00 9 1003.8
20260503230103 77 360 1.7 8.7 0.00 0.00 0.00 9 1003.8
20260503223057 77 360 6.1 8.7 0.00 0.00 0.00 10 1004.2
20260503221558 77 360 1.7 8.7 0.00 0.00 0.00 11 1004.3
20260503220051 76 346 7.8 18.2 0.00 0.00 0.00 12 1004.7
20260503213050 76 276 3.5 9.6 0.00 0.00 0.00 12 1005.1
20260503211554 76 340 5.2 13.0 0.00 0.00 0.00 13 1005.6
20260503210047 75 360 3.5 13.0 0.00 0.00 0.00 12 1005.8
20260503203057 75 360 4.3 13.0 0.00 0.00 0.00 14 1006.2
20260503201540 75 360 5.2 11.3 0.00 0.00 0.00 15 1006.5
20260503200038 73 360 3.5 10.4 0.00 0.00 0.00 18 1006.6
20260503193034 73 360 3.5 12.2 0.00 0.00 0.00 17 1007.1
20260503191532 72 360 2.6 9.6 0.00 0.00 0.00 17 1007.4
20260503190037 72 360 4.3 8.7 0.00 0.00 0.00 18 1007.6
20260503183029 71 360 5.2 9.6 0.00 0.00 0.00 18 1008.0
20260503181527 70 274 0.0 8.7 0.00 0.00 0.00 21 1008.3
20260503180028 70 360 5.2 11.3 0.00 0.00 0.00 20 1008.5
20260503173036 69 360 1.7 7.8 0.00 0.00 0.00 19 1008.7
20260503171518 69 360 3.5 8.7 0.00 0.00 0.00 23 1008.9